| time (UTC) | temp C | wind direction | speed KPH | gust KPH | rain 1hr cm | rain 24hr cm | rain mn cm | humidity % | barometer mb |
| 20260831165010 | 11 | 25 | 8.0 | 19.3 | 0.00 | 0.00 | 0.00 | 84 | 1023.3 |
| 20260831164545 | 11 | 14 | 8.0 | 17.7 | 0.00 | 0.00 | 0.00 | 84 | 1023.4 |
| 20260831164013 | 11 | 359 | 8.0 | 17.7 | 0.00 | 0.00 | 0.00 | 84 | 1023.5 |
| 20260831163508 | 11 | 331 | 4.8 | 16.1 | 0.00 | 0.00 | 0.00 | 84 | 1023.6 |
| 20260831163026 | 11 | 120 | 4.8 | 16.1 | 0.00 | 0.00 | 0.00 | 84 | 1023.6 |
| 20260831162515 | 11 | 39 | 4.8 | 16.1 | 0.00 | 0.00 | 0.00 | 84 | 1023.6 |
| 20260831162006 | 11 | 58 | 3.2 | 14.5 | 0.00 | 0.00 | 0.00 | 84 | 1023.8 |
| 20260831161517 | 11 | 71 | 3.2 | 14.5 | 0.00 | 0.00 | 0.00 | 84 | 1023.9 |
| 20260831161010 | 11 | 2 | 3.2 | 14.5 | 0.00 | 0.00 | 0.00 | 84 | 1023.9 |
| 20260831160511 | 11 | 27 | 1.6 | 11.3 | 0.00 | 0.00 | 0.00 | 84 | 1024.0 |
| 20260831160024 | 11 | 27 | 1.6 | 11.3 | 0.00 | 0.00 | 0.00 | 84 | 1024.2 |
| 20260831155511 | 11 | 10 | 1.6 | 9.7 | 0.00 | 0.00 | 0.00 | 83 | 1024.3 |
| 20260831155016 | 11 | 168 | 0.0 | 9.7 | 0.00 | 0.00 | 0.00 | 83 | 1024.4 |
| 20260831154551 | 11 | 87 | 3.2 | 8.0 | 0.00 | 0.00 | 0.00 | 83 | 1024.6 |
| 20260831154020 | 11 | 33 | 3.2 | 11.3 | 0.00 | 0.00 | 0.00 | 83 | 1024.6 |
| 20260831153517 | 11 | 38 | 4.8 | 11.3 | 0.00 | 0.00 | 0.00 | 83 | 1024.6 |
| 20260831153018 | 11 | 69 | 3.2 | 20.9 | 0.00 | 0.00 | 0.00 | 83 | 1024.5 |
| 20260831152516 | 11 | 47 | 3.2 | 20.9 | 0.00 | 0.00 | 0.00 | 83 | 1024.5 |
| 20260831152012 | 11 | 16 | 4.8 | 17.7 | 0.00 | 0.00 | 0.00 | 83 | 1024.5 |
| 20260831151534 | 11 | 47 | 6.4 | 17.7 | 0.00 | 0.00 | 0.00 | 83 | 1024.5 |
| 20260831151018 | 11 | 351 | 4.8 | 16.1 | 0.00 | 0.00 | 0.00 | 83 | 1024.6 |
| 20260831150515 | 11 | 358 | 6.4 | 19.3 | 0.00 | 0.00 | 0.00 | 83 | 1024.6 |
| 20260831150018 | 11 | 77 | 8.0 | 19.3 | 0.00 | 0.00 | 0.00 | 83 | 1024.7 |
| 20260831145516 | 11 | 22 | 8.0 | 17.7 | 0.00 | 0.00 | 0.00 | 83 | 1024.8 |
| 20260831145013 | 11 | 17 | 6.4 | 19.3 | 0.00 | 0.00 | 0.00 | 83 | 1024.9 |
| 20260831144527 | 11 | 326 | 8.0 | 19.3 | 0.00 | 0.00 | 0.00 | 83 | 1025.0 |
| 20260831144016 | 11 | 36 | 6.4 | 17.7 | 0.00 | 0.00 | 0.00 | 82 | 1025.0 |
| 20260831143515 | 11 | 39 | 6.4 | 19.3 | 0.00 | 0.00 | 0.00 | 82 | 1025.1 |
| 20260831143033 | 11 | 39 | 4.8 | 20.9 | 0.00 | 0.00 | 0.00 | 82 | 1025.2 |
| 20260831142504 | 12 | 8 | 6.4 | 20.9 | 0.00 | 0.00 | 0.00 | 82 | 1025.3 |
| 20260831142003 | 12 | 360 | 8.0 | 17.7 | 0.00 | 0.00 | 0.00 | 82 | 1025.4 |
| 20260831141509 | 12 | 35 | 9.7 | 20.9 | 0.00 | 0.00 | 0.00 | 82 | 1025.4 |
| 20260831141004 | 12 | 330 | 6.4 | 20.9 | 0.00 | 0.00 | 0.00 | 82 | 1025.5 |
| 20260831140505 | 11 | 62 | 6.4 | 17.7 | 0.00 | 0.00 | 0.00 | 82 | 1025.6 |
| 20260831140007 | 11 | 346 | 6.4 | 17.7 | 0.00 | 0.00 | 0.00 | 82 | 1025.6 |
| 20260831135503 | 11 | 15 | 6.4 | 16.1 | 0.00 | 0.00 | 0.00 | 81 | 1025.7 |
| 20260831135003 | 11 | 29 | 6.4 | 16.1 | 0.00 | 0.00 | 0.00 | 81 | 1025.8 |
| 20260831134504 | 11 | 344 | 3.2 | 19.3 | 0.00 | 0.00 | 0.00 | 81 | 1026.0 |
| 20260831134000 | 11 | 45 | 4.8 | 19.3 | 0.00 | 0.00 | 0.00 | 81 | 1026.1 |
| 20260831133507 | 11 | 312 | 6.4 | 17.7 | 0.00 | 0.00 | 0.00 | 80 | 1026.2 |
| 20260831133005 | 11 | 15 | 4.8 | 17.7 | 0.00 | 0.00 | 0.00 | 80 | 1026.2 |
| 20260831132503 | 11 | 17 | 3.2 | 14.5 | 0.00 | 0.00 | 0.00 | 80 | 1026.3 |
| 20260831132004 | 11 | 55 | 4.8 | 14.5 | 0.00 | 0.00 | 0.00 | 79 | 1026.4 |
| 20260831131504 | 11 | 8 | 4.8 | 16.1 | 0.00 | 0.00 | 0.00 | 79 | 1026.4 |
| 20260831131004 | 11 | 341 | 8.0 | 17.7 | 0.00 | 0.00 | 0.00 | 79 | 1026.5 |
| 20260831130504 | 11 | 347 | 6.4 | 17.7 | 0.00 | 0.00 | 0.00 | 80 | 1026.5 |
| 20260831130010 | 11 | 49 | 4.8 | 14.5 | 0.00 | 0.00 | 0.00 | 80 | 1026.6 |
| 20260831125506 | 11 | 14 | 6.4 | 16.1 | 0.00 | 0.00 | 0.00 | 80 | 1026.7 |
| 20260831125006 | 11 | 45 | 9.7 | 16.1 | 0.00 | 0.00 | 0.00 | 81 | 1026.8 |
| 20260831124517 | 9 | 333 | 6.4 | 12.9 | 0.00 | 0.00 | 0.00 | 78 | 1027.0 |
| 20260831124003 | 9 | 344 | 3.2 | 12.9 | 0.00 | 0.00 | 0.00 | 76 | 1027.0 |
| 20260831123509 | 9 | 320 | 0.0 | 6.4 | 0.00 | 0.00 | 0.00 | 74 | 1027.0 |
| 20260831123006 | 10 | 320 | 3.2 | 6.4 | 0.00 | 0.00 | 0.00 | 74 | 1027.1 |
| 20260831122503 | 10 | 319 | 3.2 | 6.4 | 0.00 | 0.00 | 0.00 | 73 | 1027.1 |
| 20260831122005 | 10 | 343 | 3.2 | 6.4 | 0.00 | 0.00 | 0.00 | 72 | 1027.2 |
| 20260831121505 | 11 | 348 | 3.2 | 6.4 | 0.00 | 0.00 | 0.00 | 70 | 1027.3 |
| 20260831121006 | 11 | 7 | 1.6 | 6.4 | 0.00 | 0.00 | 0.00 | 70 | 1027.2 |
| 20260831120505 | 11 | 29 | 1.6 | 6.4 | 0.00 | 0.00 | 0.00 | 69 | 1027.3 |
| 20260831120039 | 11 | 71 | 1.6 | 8.0 | 0.00 | 0.00 | 0.00 | 69 | 1027.2 |
| 20260831115507 | 11 | 357 | 3.2 | 8.0 | 0.00 | 0.00 | 0.00 | 69 | 1027.3 |
| 20260831115004 | 12 | 15 | 1.6 | 8.0 | 0.00 | 0.00 | 0.00 | 68 | 1027.3 |
| 20260831114526 | 12 | 38 | 1.6 | 8.0 | 0.00 | 0.00 | 0.00 | 68 | 1027.4 |
| 20260831114006 | 12 | 22 | 1.6 | 9.7 | 0.00 | 0.00 | 0.00 | 67 | 1027.5 |
| 20260831113505 | 12 | 54 | 1.6 | 9.7 | 0.00 | 0.00 | 0.00 | 67 | 1027.5 |
| 20260831113019 | 12 | 66 | 1.6 | 8.0 | 0.00 | 0.00 | 0.00 | 67 | 1027.5 |
| 20260831112506 | 12 | 8 | 1.6 | 8.0 | 0.00 | 0.00 | 0.00 | 67 | 1027.5 |
| 20260831112014 | 12 | 37 | 3.2 | 8.0 | 0.00 | 0.00 | 0.00 | 67 | 1027.6 |
| 20260831111505 | 12 | 65 | 3.2 | 8.0 | 0.00 | 0.00 | 0.00 | 67 | 1027.6 |
| 20260831111006 | 12 | 353 | 1.6 | 6.4 | 0.00 | 0.00 | 0.00 | 67 | 1027.6 |
| 20260831110509 | 12 | 37 | 1.6 | 6.4 | 0.00 | 0.00 | 0.00 | 66 | 1027.6 |
| 20260831110004 | 12 | 22 | 1.6 | 6.4 | 0.00 | 0.00 | 0.00 | 66 | 1027.5 |
| 20260831105504 | 12 | 54 | 0.0 | 4.8 | 0.00 | 0.00 | 0.00 | 66 | 1027.5 |
| 20260831105011 | 12 | 51 | 0.0 | 4.8 | 0.00 | 0.00 | 0.00 | 65 | 1027.6 |
| 20260831104509 | 12 | 62 | 1.6 | 6.4 | 0.00 | 0.00 | 0.00 | 65 | 1027.5 |
| 20260831104007 | 13 | 54 | 1.6 | 8.0 | 0.00 | 0.00 | 0.00 | 65 | 1027.6 |
| 20260831103514 | 13 | 47 | 0.0 | 8.0 | 0.00 | 0.00 | 0.00 | 65 | 1027.6 |
| 20260831103004 | 13 | 62 | 3.2 | 6.4 | 0.00 | 0.00 | 0.00 | 65 | 1027.5 |
| 20260831102512 | 13 | 28 | 0.0 | 8.0 | 0.00 | 0.00 | 0.00 | 65 | 1027.4 |
| 20260831102009 | 13 | 38 | 3.2 | 8.0 | 0.00 | 0.00 | 0.00 | 65 | 1027.5 |
| 20260831101533 | 13 | 30 | 3.2 | 8.0 | 0.00 | 0.00 | 0.00 | 66 | 1027.6 |
| 20260831101012 | 13 | 47 | 3.2 | 8.0 | 0.00 | 0.00 | 0.00 | 66 | 1027.6 |
| 20260831100504 | 13 | 31 | 3.2 | 8.0 | 0.00 | 0.00 | 0.00 | 66 | 1027.6 |
| 20260831100025 | 13 | 39 | 0.0 | 6.4 | 0.00 | 0.00 | 0.00 | 66 | 1027.6 |
| 20260831095504 | 13 | 19 | 1.6 | 6.4 | 0.00 | 0.00 | 0.00 | 66 | 1027.7 |
| 20260831095003 | 13 | 46 | 1.6 | 6.4 | 0.00 | 0.00 | 0.00 | 66 | 1027.7 |
| 20260831094509 | 13 | 43 | 1.6 | 6.4 | 0.00 | 0.00 | 0.00 | 66 | 1027.8 |
| 20260831094007 | 13 | 50 | 1.6 | 8.0 | 0.00 | 0.00 | 0.00 | 66 | 1027.8 |
| 20260831093519 | 13 | 39 | 4.8 | 8.0 | 0.00 | 0.00 | 0.00 | 66 | 1027.8 |
| 20260831093027 | 13 | 20 | 1.6 | 8.0 | 0.00 | 0.00 | 0.00 | 66 | 1027.9 |
| 20260831092507 | 13 | 33 | 3.2 | 6.4 | 0.00 | 0.00 | 0.00 | 66 | 1028.0 |
| 20260831092011 | 13 | 23 | 0.0 | 9.7 | 0.00 | 0.00 | 0.00 | 67 | 1027.8 |
| 20260831091515 | 13 | 37 | 0.0 | 9.7 | 0.00 | 0.00 | 0.00 | 66 | 1028.0 |
| 20260831091004 | 13 | 11 | 1.6 | 6.4 | 0.00 | 0.00 | 0.00 | 66 | 1028.0 |
| 20260831090515 | 13 | 55 | 0.0 | 4.8 | 0.00 | 0.00 | 0.00 | 66 | 1028.0 |
| 20260831090012 | 13 | 58 | 0.0 | 4.8 | 0.00 | 0.00 | 0.00 | 66 | 1028.0 |
| 20260831085516 | 13 | 47 | 0.0 | 4.8 | 0.00 | 0.00 | 0.00 | 66 | 1028.0 |
| 20260831085012 | 13 | 56 | 1.6 | 4.8 | 0.00 | 0.00 | 0.00 | 67 | 1027.9 |
| 20260831084508 | 13 | 61 | 0.0 | 4.8 | 0.00 | 0.00 | 0.00 | 67 | 1028.0 |
| 20260831084003 | 14 | 61 | 1.6 | 4.8 | 0.00 | 0.00 | 0.00 | 66 | 1028.1 |
| 20260831083503 | 14 | 61 | 1.6 | 4.8 | 0.00 | 0.00 | 0.00 | 66 | 1028.1 |
| 20260831083010 | 14 | 52 | 0.0 | 3.2 | 0.00 | 0.00 | 0.00 | 65 | 1028.1 |
| 20260831082508 | 14 | 54 | 0.0 | 3.2 | 0.00 | 0.00 | 0.00 | 65 | 1028.1 |
| 20260831082013 | 14 | 54 | 0.0 | 6.4 | 0.00 | 0.00 | 0.00 | 65 | 1028.1 |
| 20260831081515 | 15 | 54 | 0.0 | 6.4 | 0.00 | 0.00 | 0.00 | 65 | 1028.1 |
| 20260831081013 | 15 | 77 | 0.0 | 3.2 | 0.00 | 0.00 | 0.00 | 65 | 1028.1 |
| 20260831080504 | 15 | 77 | 0.0 | 1.6 | 0.00 | 0.00 | 0.00 | 64 | 1028.1 |
| 20260831080029 | 15 | 77 | 0.0 | 4.8 | 0.00 | 0.00 | 0.00 | 64 | 1028.1 |
| 20260831075510 | 15 | 77 | 1.6 | 6.4 | 0.00 | 0.00 | 0.00 | 63 | 1028.1 |
| 20260831075013 | 16 | 88 | 1.6 | 6.4 | 0.00 | 0.00 | 0.00 | 63 | 1028.1 |
| 20260831074530 | 16 | 95 | 3.2 | 9.7 | 0.00 | 0.00 | 0.00 | 63 | 1028.0 |
| 20260831074010 | 16 | 91 | 3.2 | 9.7 | 0.00 | 0.00 | 0.00 | 62 | 1028.0 |
| 20260831073515 | 16 | 95 | 4.8 | 9.7 | 0.00 | 0.00 | 0.00 | 62 | 1028.0 |
| 20260831073018 | 16 | 105 | 4.8 | 9.7 | 0.00 | 0.00 | 0.00 | 61 | 1028.0 |
| 20260831072504 | 16 | 102 | 4.8 | 8.0 | 0.00 | 0.00 | 0.00 | 61 | 1028.0 |
| 20260831072010 | 16 | 115 | 3.2 | 6.4 | 0.00 | 0.00 | 0.00 | 61 | 1028.0 |
| 20260831071526 | 16 | 115 | 3.2 | 9.7 | 0.00 | 0.00 | 0.00 | 60 | 1028.0 |
| 20260831071016 | 16 | 104 | 4.8 | 9.7 | 0.00 | 0.00 | 0.00 | 59 | 1028.0 |
| 20260831070511 | 16 | 104 | 3.2 | 6.4 | 0.00 | 0.00 | 0.00 | 62 | 1028.1 |
| 20260831070016 | 16 | 156 | 3.2 | 8.0 | 0.00 | 0.00 | 0.00 | 63 | 1028.2 |
| 20260831065521 | 17 | 185 | 4.8 | 8.0 | 0.00 | 0.00 | 0.00 | 64 | 1028.2 |
| 20260831065013 | 17 | 200 | 3.2 | 6.4 | 0.00 | 0.00 | 0.00 | 62 | 1028.2 |
| 20260831064528 | 17 | 214 | 1.6 | 4.8 | 0.00 | 0.00 | 0.00 | 62 | 1028.3 |
| 20260831064016 | 17 | 214 | 1.6 | 4.8 | 0.00 | 0.00 | 0.00 | 63 | 1028.2 |
| 20260831063511 | 17 | 214 | 1.6 | 6.4 | 0.00 | 0.00 | 0.00 | 61 | 1028.3 |
| 20260831063032 | 17 | 232 | 0.0 | 6.4 | 0.00 | 0.00 | 0.00 | 60 | 1028.3 |
| 20260831062513 | 18 | 231 | 3.2 | 6.4 | 0.00 | 0.00 | 0.00 | 60 | 1028.4 |
| 20260831062011 | 18 | 243 | 1.6 | 6.4 | 0.00 | 0.00 | 0.00 | 59 | 1028.5 |
| 20260831061535 | 18 | 101 | 0.0 | 0.0 | 0.00 | 0.00 | 0.00 | 61 | 1028.5 |
| 20260831061017 | 17 | 101 | 0.0 | 4.8 | 0.00 | 0.00 | 0.00 | 63 | 1028.5 |
| 20260831060511 | 17 | 101 | 0.0 | 6.4 | 0.00 | 0.00 | 0.00 | 61 | 1028.5 |
| 20260831060021 | 17 | 101 | 1.6 | 8.0 | 0.00 | 0.00 | 0.00 | 61 | 1028.6 |
| 20260831055511 | 17 | 108 | 3.2 | 8.0 | 0.00 | 0.00 | 0.00 | 62 | 1028.5 |
| 20260831055011 | 17 | 114 | 4.8 | 11.3 | 0.00 | 0.00 | 0.00 | 63 | 1028.5 |
| 20260831054524 | 17 | 120 | 4.8 | 11.3 | 0.00 | 0.00 | 0.00 | 61 | 1028.5 |
| 20260831054013 | 17 | 119 | 4.8 | 8.0 | 0.00 | 0.00 | 0.00 | 61 | 1028.5 |
| 20260831053515 | 17 | 159 | 3.2 | 8.0 | 0.00 | 0.00 | 0.00 | 60 | 1028.5 |
| 20260831053024 | 17 | 141 | 4.8 | 9.7 | 0.00 | 0.00 | 0.00 | 58 | 1028.5 |
| 20260831052502 | 17 | 96 | 3.2 | 9.7 | 0.00 | 0.00 | 0.00 | 58 | 1028.6 |
| 20260831052006 | 17 | 156 | 3.2 | 8.0 | 0.00 | 0.00 | 0.00 | 60 | 1028.6 |
| 20260831051516 | 17 | 135 | 3.2 | 8.0 | 0.00 | 0.00 | 0.00 | 61 | 1028.7 |
| 20260831051008 | 17 | 135 | 4.8 | 11.3 | 0.00 | 0.00 | 0.00 | 61 | 1028.8 |
| 20260831050504 | 17 | 151 | 6.4 | 11.3 | 0.00 | 0.00 | 0.00 | 61 | 1028.9 |
| 20260831050011 | 17 | 204 | 1.6 | 8.0 | 0.00 | 0.00 | 0.00 | 60 | 1029.0 |
| 20260831045504 | 16 | 180 | 4.8 | 8.0 | 0.00 | 0.00 | 0.00 | 61 | 1029.1 |
| 20260831045012 | 16 | 123 | 4.8 | 8.0 | 0.00 | 0.00 | 0.00 | 61 | 1029.2 |
| 20260831044514 | 16 | 192 | 3.2 | 8.0 | 0.00 | 0.00 | 0.00 | 61 | 1029.2 |
| 20260831044004 | 16 | 180 | 4.8 | 8.0 | 0.00 | 0.00 | 0.00 | 61 | 1029.2 |
| 20260831043512 | 16 | 180 | 4.8 | 8.0 | 0.00 | 0.00 | 0.00 | 61 | 1029.4 |
| 20260831043009 | 16 | 219 | 4.8 | 8.0 | 0.00 | 0.00 | 0.00 | 63 | 1029.5 |
| 20260831042503 | 16 | 219 | 6.4 | 8.0 | 0.00 | 0.00 | 0.00 | 63 | 1029.5 |
| 20260831042003 | 16 | 235 | 4.8 | 8.0 | 0.00 | 0.00 | 0.00 | 63 | 1029.5 |
| 20260831041508 | 16 | 215 | 3.2 | 8.0 | 0.00 | 0.00 | 0.00 | 63 | 1029.6 |
| 20260831041006 | 16 | 246 | 4.8 | 12.9 | 0.00 | 0.00 | 0.00 | 65 | 1029.6 |
| 20260831040508 | 16 | 190 | 4.8 | 12.9 | 0.00 | 0.00 | 0.00 | 63 | 1029.7 |
| 20260831040006 | 16 | 208 | 1.6 | 12.9 | 0.00 | 0.00 | 0.00 | 63 | 1029.8 |
| 20260831035509 | 16 | 189 | 3.2 | 12.9 | 0.00 | 0.00 | 0.00 | 63 | 1029.8 |
| 20260831035004 | 15 | 185 | 4.8 | 12.9 | 0.00 | 0.00 | 0.00 | 64 | 1029.8 |
| 20260831034515 | 16 | 212 | 6.4 | 12.9 | 0.00 | 0.00 | 0.00 | 65 | 1029.9 |
| 20260831034009 | 15 | 200 | 6.4 | 12.9 | 0.00 | 0.00 | 0.00 | 64 | 1030.0 |
| 20260831033506 | 15 | 165 | 8.0 | 14.5 | 0.00 | 0.00 | 0.00 | 66 | 1030.1 |
| 20260831033034 | 15 | 185 | 4.8 | 14.5 | 0.00 | 0.00 | 0.00 | 67 | 1030.2 |
| 20260831032508 | 15 | 237 | 8.0 | 14.5 | 0.00 | 0.00 | 0.00 | 67 | 1030.3 |
| 20260831032006 | 15 | 213 | 4.8 | 14.5 | 0.00 | 0.00 | 0.00 | 66 | 1030.2 |
| 20260831031521 | 15 | 204 | 4.8 | 14.5 | 0.00 | 0.00 | 0.00 | 67 | 1030.2 |
| 20260831031007 | 15 | 235 | 4.8 | 11.3 | 0.00 | 0.00 | 0.00 | 65 | 1030.3 |
| 20260831030503 | 15 | 170 | 4.8 | 12.9 | 0.00 | 0.00 | 0.00 | 68 | 1030.4 |
| 20260831030004 | 15 | 198 | 4.8 | 14.5 | 0.00 | 0.00 | 0.00 | 69 | 1030.5 |
| 20260831025504 | 15 | 194 | 8.0 | 14.5 | 0.00 | 0.00 | 0.00 | 67 | 1030.6 |
| 20260831025017 | 14 | 223 | 6.4 | 14.5 | 0.00 | 0.00 | 0.00 | 69 | 1030.8 |
| 20260831024511 | 14 | 208 | 8.0 | 14.5 | 0.00 | 0.00 | 0.00 | 69 | 1030.9 |
| 20260831024004 | 14 | 197 | 9.7 | 16.1 | 0.00 | 0.00 | 0.00 | 70 | 1030.8 |
| 20260831023513 | 14 | 217 | 9.7 | 16.1 | 0.00 | 0.00 | 0.00 | 70 | 1030.8 |
| 20260831023010 | 14 | 195 | 6.4 | 14.5 | 0.00 | 0.00 | 0.00 | 70 | 1030.9 |
| 20260831022514 | 13 | 126 | 6.4 | 16.1 | 0.00 | 0.00 | 0.00 | 71 | 1031.0 |
| 20260831022011 | 13 | 202 | 6.4 | 16.1 | 0.00 | 0.00 | 0.00 | 72 | 1031.1 |
| 20260831021510 | 13 | 161 | 8.0 | 16.1 | 0.00 | 0.00 | 0.00 | 71 | 1031.3 |
| 20260831021014 | 13 | 206 | 4.8 | 14.5 | 0.00 | 0.00 | 0.00 | 72 | 1031.4 |
| 20260831020510 | 13 | 170 | 8.0 | 14.5 | 0.00 | 0.00 | 0.00 | 73 | 1031.3 |
| 20260831020031 | 13 | 216 | 8.0 | 16.1 | 0.00 | 0.00 | 0.00 | 72 | 1031.4 |
| 20260831015505 | 13 | 197 | 9.7 | 16.1 | 0.00 | 0.00 | 0.00 | 73 | 1031.4 |
| 20260831015003 | 13 | 166 | 6.4 | 12.9 | 0.00 | 0.00 | 0.00 | 75 | 1031.6 |
| 20260831014530 | 13 | 172 | 8.0 | 12.9 | 0.00 | 0.00 | 0.00 | 74 | 1031.7 |
| 20260831014008 | 13 | 202 | 4.8 | 12.9 | 0.00 | 0.00 | 0.00 | 73 | 1031.6 |
| 20260831013510 | 13 | 209 | 6.4 | 14.5 | 0.00 | 0.00 | 0.00 | 73 | 1031.5 |
| 20260831013026 | 12 | 206 | 3.2 | 14.5 | 0.00 | 0.00 | 0.00 | 75 | 1031.6 |
| 20260831012511 | 12 | 198 | 4.8 | 14.5 | 0.00 | 0.00 | 0.00 | 73 | 1031.7 |
| 20260831012011 | 12 | 175 | 4.8 | 14.5 | 0.00 | 0.00 | 0.00 | 75 | 1032.0 |
| 20260831011523 | 12 | 201 | 4.8 | 14.5 | 0.00 | 0.00 | 0.00 | 75 | 1032.0 |
| 20260831011007 | 12 | 131 | 6.4 | 12.9 | 0.00 | 0.00 | 0.00 | 75 | 1031.9 |
| 20260831010516 | 12 | 216 | 8.0 | 12.9 | 0.00 | 0.00 | 0.00 | 76 | 1031.9 |
| 20260831010038 | 12 | 189 | 6.4 | 12.9 | 0.00 | 0.00 | 0.00 | 76 | 1031.9 |
| 20260831005506 | 12 | 149 | 4.8 | 14.5 | 0.00 | 0.00 | 0.00 | 76 | 1032.0 |
| 20260831005019 | 11 | 194 | 9.7 | 12.9 | 0.00 | 0.00 | 0.00 | 77 | 1032.1 |
| 20260831004514 | 11 | 185 | 6.4 | 11.3 | 0.00 | 0.00 | 0.00 | 78 | 1032.1 |
| 20260831004020 | 11 | 223 | 3.2 | 12.9 | 0.00 | 0.00 | 0.00 | 76 | 1032.1 |
| 20260831003515 | 11 | 197 | 3.2 | 12.9 | 0.00 | 0.00 | 0.00 | 77 | 1032.1 |
| 20260831003012 | 11 | 189 | 6.4 | 12.9 | 0.00 | 0.00 | 0.00 | 77 | 1032.1 |
| 20260831002513 | 11 | 203 | 8.0 | 11.3 | 0.00 | 0.00 | 0.00 | 78 | 1032.1 |
| 20260831002011 | 11 | 220 | 3.2 | 12.9 | 0.00 | 0.00 | 0.00 | 78 | 1032.1 |
| 20260831001517 | 11 | 191 | 6.4 | 14.5 | 0.00 | 0.00 | 0.00 | 79 | 1032.3 |
| 20260831001013 | 11 | 197 | 6.4 | 14.5 | 0.00 | 0.00 | 0.00 | 79 | 1032.3 |
| 20260831000512 | 11 | 203 | 8.0 | 14.5 | 0.00 | 0.00 | 0.00 | 79 | 1032.4 |
| 20260831000024 | 10 | 185 | 6.4 | 11.3 | 0.00 | 0.00 | 0.00 | 80 | 1032.4 |
| 20260830235514 | 10 | 185 | 6.4 | 11.3 | 0.00 | 0.00 | 0.00 | 79 | 1032.2 |
| 20260830235007 | 10 | 206 | 4.8 | 11.3 | 0.00 | 0.00 | 0.00 | 80 | 1032.1 |
| 20260830234540 | 10 | 199 | 6.4 | 11.3 | 0.00 | 0.00 | 0.00 | 80 | 1032.1 |
| 20260830234011 | 10 | 171 | 6.4 | 11.3 | 0.00 | 0.00 | 0.00 | 80 | 1032.3 |
| 20260830233516 | 10 | 210 | 3.2 | 8.0 | 0.00 | 0.00 | 0.00 | 80 | 1032.3 |
| 20260830233030 | 10 | 234 | 1.6 | 8.0 | 0.00 | 0.00 | 0.00 | 80 | 1032.4 |
| 20260830232510 | 10 | 196 | 3.2 | 8.0 | 0.00 | 0.00 | 0.00 | 81 | 1032.1 |
| 20260830232023 | 10 | 226 | 3.2 | 6.4 | 0.00 | 0.00 | 0.00 | 81 | 1032.1 |
| 20260830231515 | 9 | 202 | 0.0 | 4.8 | 0.00 | 0.00 | 0.00 | 81 | 1032.1 |
| 20260830231008 | 9 | 175 | 0.0 | 4.8 | 0.00 | 0.00 | 0.00 | 81 | 1032.4 |
| 20260830230517 | 9 | 229 | 0.0 | 6.4 | 0.00 | 0.00 | 0.00 | 81 | 1032.5 |
| 20260830230020 | 9 | 224 | 3.2 | 6.4 | 0.00 | 0.00 | 0.00 | 81 | 1032.4 |
| 20260830225511 | 9 | 185 | 0.0 | 6.4 | 0.00 | 0.00 | 0.00 | 82 | 1032.3 |
| 20260830225014 | 8 | 191 | 1.6 | 8.0 | 0.00 | 0.00 | 0.00 | 81 | 1032.4 |
| 20260830224517 | 8 | 169 | 4.8 | 8.0 | 0.00 | 0.00 | 0.00 | 82 | 1032.6 |
| 20260830224016 | 8 | 200 | 1.6 | 6.4 | 0.00 | 0.00 | 0.00 | 82 | 1032.6 |
| 20260830223514 | 8 | 112 | 1.6 | 4.8 | 0.00 | 0.00 | 0.00 | 83 | 1032.6 |
| 20260830223036 | 8 | 120 | 0.0 | 6.4 | 0.00 | 0.00 | 0.00 | 83 | 1032.6 |
| 20260830222519 | 8 | 121 | 3.2 | 8.0 | 0.00 | 0.00 | 0.00 | 83 | 1032.6 |
| 20260830222018 | 8 | 151 | 3.2 | 8.0 | 0.00 | 0.00 | 0.00 | 83 | 1032.6 |
| 20260830221537 | 8 | 185 | 3.2 | 8.0 | 0.00 | 0.00 | 0.00 | 83 | 1032.7 |
| 20260830221014 | 8 | 156 | 4.8 | 8.0 | 0.00 | 0.00 | 0.00 | 83 | 1032.7 |
| 20260830220511 | 8 | 116 | 0.0 | 6.4 | 0.00 | 0.00 | 0.00 | 83 | 1032.7 |
| 20260830220019 | 8 | 145 | 3.2 | 8.0 | 0.00 | 0.00 | 0.00 | 83 | 1032.7 |
| 20260830215515 | 8 | 170 | 3.2 | 8.0 | 0.00 | 0.00 | 0.00 | 83 | 1032.7 |
| 20260830215016 | 8 | 142 | 4.8 | 9.7 | 0.00 | 0.00 | 0.00 | 83 | 1032.6 |
| 20260830214523 | 8 | 158 | 4.8 | 9.7 | 0.00 | 0.00 | 0.00 | 83 | 1032.6 |
| 20260830214013 | 8 | 155 | 3.2 | 8.0 | 0.00 | 0.00 | 0.00 | 83 | 1032.5 |
| 20260830213512 | 8 | 129 | 3.2 | 8.0 | 0.00 | 0.00 | 0.00 | 83 | 1032.5 |
| 20260830213029 | 8 | 148 | 3.2 | 9.7 | 0.00 | 0.00 | 0.00 | 83 | 1032.4 |
| 20260830212510 | 8 | 164 | 4.8 | 12.9 | 0.00 | 0.00 | 0.00 | 83 | 1032.3 |
| 20260830212017 | 8 | 156 | 6.4 | 12.9 | 0.00 | 0.00 | 0.00 | 83 | 1032.3 |
| 20260830211525 | 8 | 101 | 4.8 | 12.9 | 0.00 | 0.00 | 0.00 | 83 | 1032.3 |
| 20260830211019 | 8 | 129 | 6.4 | 11.3 | 0.00 | 0.00 | 0.00 | 83 | 1032.3 |
| 20260830210519 | 8 | 164 | 4.8 | 11.3 | 0.00 | 0.00 | 0.00 | 83 | 1032.3 |
| 20260830210024 | 8 | 129 | 6.4 | 11.3 | 0.00 | 0.00 | 0.00 | 83 | 1032.2 |
| 20260830205515 | 8 | 166 | 1.6 | 6.4 | 0.00 | 0.00 | 0.00 | 83 | 1032.1 |
| 20260830205013 | 8 | 153 | 3.2 | 6.4 | 0.00 | 0.00 | 0.00 | 83 | 1032.0 |
| 20260830204537 | 8 | 162 | 3.2 | 14.5 | 0.00 | 0.00 | 0.00 | 82 | 1032.2 |
| 20260830204010 | 8 | 155 | 6.4 | 14.5 | 0.00 | 0.00 | 0.00 | 83 | 1032.3 |
| 20260830203512 | 8 | 167 | 3.2 | 8.0 | 0.00 | 0.00 | 0.00 | 82 | 1032.3 |
| 20260830203044 | 8 | 162 | 4.8 | 14.5 | 0.00 | 0.00 | 0.00 | 82 | 1032.2 |
| 20260830202505 | 8 | 120 | 8.0 | 14.5 | 0.00 | 0.00 | 0.00 | 82 | 1032.2 |
| 20260830202003 | 8 | 145 | 4.8 | 14.5 | 0.00 | 0.00 | 0.00 | 82 | 1032.1 |
| 20260830201503 | 8 | 149 | 11.3 | 14.5 | 0.00 | 0.00 | 0.00 | 82 | 1032.2 |
| 20260830201007 | 8 | 137 | 6.4 | 12.9 | 0.00 | 0.00 | 0.00 | 82 | 1032.0 |
| 20260830200459 | 8 | 151 | 4.8 | 9.7 | 0.00 | 0.00 | 0.00 | 82 | 1032.0 |
| 20260830200002 | 8 | 162 | 3.2 | 8.0 | 0.00 | 0.00 | 0.00 | 82 | 1032.0 |
| 20260830195502 | 8 | 135 | 3.2 | 11.3 | 0.00 | 0.00 | 0.00 | 82 | 1032.1 |
| 20260830195002 | 8 | 189 | 6.4 | 11.3 | 0.00 | 0.00 | 0.00 | 82 | 1032.0 |
| 20260830194504 | 8 | 130 | 4.8 | 12.9 | 0.00 | 0.00 | 0.00 | 82 | 1032.0 |
| 20260830194003 | 8 | 172 | 3.2 | 12.9 | 0.00 | 0.00 | 0.00 | 82 | 1032.0 |
| 20260830193502 | 8 | 145 | 6.4 | 12.9 | 0.00 | 0.00 | 0.00 | 82 | 1032.0 |
| 20260830193007 | 8 | 114 | 8.0 | 12.9 | 0.00 | 0.00 | 0.00 | 82 | 1032.0 |
| 20260830192505 | 8 | 129 | 6.4 | 12.9 | 0.00 | 0.00 | 0.00 | 82 | 1032.0 |
| 20260830192004 | 8 | 151 | 8.0 | 12.9 | 0.00 | 0.00 | 0.00 | 82 | 1032.1 |
| 20260830191509 | 8 | 152 | 6.4 | 9.7 | 0.00 | 0.00 | 0.00 | 83 | 1032.0 |
| 20260830191001 | 8 | 172 | 3.2 | 9.7 | 0.00 | 0.00 | 0.00 | 83 | 1032.0 |
| 20260830190504 | 8 | 191 | 4.8 | 14.5 | 0.00 | 0.00 | 0.00 | 82 | 1032.0 |
| 20260830190004 | 8 | 185 | 6.4 | 14.5 | 0.00 | 0.00 | 0.00 | 82 | 1031.9 |
| 20260830185503 | 8 | 134 | 4.8 | 9.7 | 0.00 | 0.00 | 0.00 | 83 | 1031.9 |
| 20260830185004 | 8 | 180 | 4.8 | 11.3 | 0.00 | 0.00 | 0.00 | 83 | 1031.9 |
| 20260830184508 | 8 | 132 | 6.4 | 11.3 | 0.00 | 0.00 | 0.00 | 83 | 1031.9 |
| 20260830184008 | 8 | 132 | 3.2 | 12.9 | 0.00 | 0.00 | 0.00 | 84 | 1032.0 |
| 20260830183502 | 8 | 172 | 6.4 | 12.9 | 0.00 | 0.00 | 0.00 | 84 | 1032.0 |
| 20260830183003 | 8 | 163 | 3.2 | 8.0 | 0.00 | 0.00 | 0.00 | 84 | 1032.0 |
| 20260830182503 | 8 | 185 | 4.8 | 16.1 | 0.00 | 0.00 | 0.00 | 84 | 1032.1 |
| 20260830182004 | 8 | 180 | 8.0 | 16.1 | 0.00 | 0.00 | 0.00 | 85 | 1032.0 |
| 20260830181504 | 8 | 149 | 4.8 | 12.9 | 0.00 | 0.00 | 0.00 | 85 | 1032.1 |
| 20260830181004 | 8 | 175 | 4.8 | 12.9 | 0.00 | 0.00 | 0.00 | 85 | 1032.2 |
| 20260830180505 | 8 | 160 | 6.4 | 12.9 | 0.00 | 0.00 | 0.00 | 86 | 1032.2 |
| 20260830180003 | 8 | 127 | 4.8 | 9.7 | 0.00 | 0.00 | 0.00 | 86 | 1032.2 |
| 20260830175507 | 8 | 154 | 4.8 | 9.7 | 0.00 | 0.00 | 0.00 | 86 | 1032.2 |
| 20260830175004 | 8 | 147 | 4.8 | 11.3 | 0.00 | 0.00 | 0.00 | 86 | 1032.2 |
| 20260830174503 | 8 | 141 | 4.8 | 11.3 | 0.00 | 0.00 | 0.00 | 86 | 1032.2 |
| 20260830174003 | 8 | 185 | 6.4 | 11.3 | 0.00 | 0.00 | 0.00 | 86 | 1032.2 |
| 20260830173502 | 8 | 163 | 6.4 | 11.3 | 0.00 | 0.00 | 0.00 | 87 | 1032.2 |
| 20260830173012 | 8 | 189 | 6.4 | 11.3 | 0.00 | 0.00 | 0.00 | 87 | 1032.3 |
| 20260830172506 | 8 | 175 | 4.8 | 8.0 | 0.00 | 0.00 | 0.00 | 87 | 1032.2 |
| 20260830172003 | 8 | 165 | 3.2 | 8.0 | 0.00 | 0.00 | 0.00 | 87 | 1032.2 |
| 20260830171503 | 8 | 185 | 6.4 | 8.0 | 0.00 | 0.00 | 0.00 | 87 | 1032.2 |
| 20260830171004 | 8 | 172 | 4.8 | 8.0 | 0.00 | 0.00 | 0.00 | 87 | 1032.2 |
| 20260830170506 | 8 | 180 | 4.8 | 8.0 | 0.00 | 0.00 | 0.00 | 87 | 1032.2 |
| 20260830170007 | 8 | 180 | 4.8 | 8.0 | 0.00 | 0.00 | 0.00 | 88 | 1032.2 |
| 20260830165504 | 8 | 175 | 4.8 | 8.0 | 0.00 | 0.00 | 0.00 | 88 | 1032.2 |